Hazlehurst, GA

12:34 AM EDT on October 23, 2019 (GMT -0400)
Hazlehurst

Weather History for KAZE - September, 2019

Change the Weather History Date:

Saturday, September 21, 2019

  Actual Average Record
Temperature  
Mean Temperature 78 °F -  
Max Temperature 90 °F 87 °F 93 °F (2018)
Min Temperature 67 °F 67 °F 63 °F (2014)
Cooling Degree Days 14    
Growing Degree Days 28 (Base 50)    
Moisture  
Dew Point 56 °F    
Average Humidity 53    
Maximum Humidity 87    
Minimum Humidity 17    
Precipitation  
Precipitation 0.00 in - - ()
Sea Level Pressure  
Sea Level Pressure 30.23 in    
Wind  
Wind Speed 4 mph (East)    
Max Wind Speed 10 mph    
Max Gust Speed 16 mph    
Visibility 10 miles    
Events      
Averages and records for this station are not official NWS values.
T = Trace of Precipitation, MM = Missing Value Source: NWS Daily Summary

Daily Weather History Graph

Daily Weather History Graph

Search for Another Location

Airport or City:

Astronomy

Sep. 21, 2019 Rise Set
Actual Time 7:18 AM EDT 7:28 PM EDT
Civil Twilight 6:53 AM EDT 7:53 PM EDT
Nautical Twilight 6:25 AM EDT 8:21 PM EDT
Astronomical Twilight 5:56 AM EDT 8:50 PM EDT
Moon No Moon Rise 2:00 PM EDT (9/21)
Length of Visible Light 12h 59m
Length of Day
12h 10m
Waning Gibbous, 55% of the Moon is Illuminated
Sep 21
Waning Gibbous
Sep 21
Last Quarter
Sep 28
New
Oct 5
First Quarter
Oct 13
Full

Hourly Weather History & Observations

Time (EDT) Temp. Heat Index Dew Point Humidity Pressure Visibility Wind Dir Wind Speed Gust Speed Precip Events Conditions
12:10 AM 75.4 °F - 63.5 °F 66% 30.23 in 10.0 mi East 4.6 mph - N/A   Mostly Cloudy
12:30 AM 74.7 °F - 63.5 °F 68% 30.23 in 10.0 mi ESE 3.5 mph - N/A   Scattered Clouds
12:50 AM 73.9 °F - 63.5 °F 70% 30.23 in 10.0 mi ESE 3.5 mph - N/A   Clear
1:10 AM 73.8 °F - 63.5 °F 70% 30.23 in 10.0 mi ESE 4.6 mph - N/A   Scattered Clouds
1:30 AM 73.6 °F - 63.7 °F 71% 30.23 in 10.0 mi East 3.5 mph - N/A   Clear
1:50 AM 73.0 °F - 63.7 °F 72% 30.23 in 10.0 mi Calm Calm - N/A   Clear
2:10 AM 72.5 °F - 63.9 °F 74% 30.24 in 10.0 mi Calm Calm - N/A   Clear
2:30 AM 71.8 °F - 64.0 °F 77% 30.23 in 10.0 mi East 3.5 mph - N/A   Clear
2:50 AM 71.6 °F - 64.2 °F 77% 30.23 in 10.0 mi Calm Calm - N/A   Clear
3:10 AM 71.1 °F - 64.4 °F 79% 30.23 in 10.0 mi Calm Calm - N/A   Clear
3:30 AM 70.7 °F - 64.4 °F 80% 30.22 in 10.0 mi East 4.6 mph - N/A   Clear
4:10 AM 70.2 °F - 64.4 °F 82% 30.23 in 10.0 mi East 3.5 mph - N/A   Clear
4:30 AM 69.8 °F - 64.2 °F 82% 30.22 in 10.0 mi East 3.5 mph - N/A   Clear
4:50 AM 69.1 °F - 64.2 °F 84% 30.22 in 10.0 mi Calm Calm - N/A   Clear
5:10 AM 69.1 °F - 64.4 °F 85% 30.23 in 10.0 mi East 3.5 mph - N/A   Clear
5:30 AM 68.9 °F - 64.0 °F 84% 30.23 in 10.0 mi Calm Calm - N/A   Clear
5:50 AM 68.5 °F - 64.0 °F 85% 30.23 in 10.0 mi Calm Calm - N/A   Clear
6:10 AM 68.4 °F - 63.7 °F 85% 30.24 in 10.0 mi Calm Calm - N/A   Clear
6:30 AM 68.0 °F - 63.7 °F 86% 30.25 in 10.0 mi Calm Calm - N/A   Clear
6:50 AM 67.6 °F - 63.5 °F 87% 30.25 in 10.0 mi Calm Calm - N/A   Clear
7:10 AM 67.5 °F - 63.5 °F 87% 30.25 in 10.0 mi Calm Calm - N/A   Clear
7:30 AM 68.0 °F - 63.5 °F 85% 30.26 in 10.0 mi ENE 3.5 mph - N/A   Clear
7:50 AM 68.7 °F - 63.5 °F 83% 30.27 in 10.0 mi ENE 3.5 mph - N/A   Clear
8:10 AM 69.4 °F - 63.5 °F 81% 30.27 in 10.0 mi ENE 3.5 mph - N/A   Clear
8:30 AM 70.2 °F - 63.7 °F 80% 30.28 in 10.0 mi East 4.6 mph - N/A   Clear
8:50 AM 72.7 °F - 63.9 °F 74% 30.28 in 10.0 mi East 3.5 mph - N/A   Clear
9:10 AM 74.5 °F - 63.5 °F 68% 30.29 in 10.0 mi Calm Calm - N/A   Clear
9:30 AM 77.2 °F - 62.2 °F 60% 30.30 in 10.0 mi East 6.9 mph - N/A   Clear
9:50 AM 80.2 °F 81.2 °F 61.0 °F 52% 30.30 in 10.0 mi ESE 5.8 mph - N/A   Clear
10:10 AM 81.1 °F 81.8 °F 60.3 °F 49% 30.30 in 10.0 mi ESE 8.1 mph - N/A   Clear
10:30 AM 82.0 °F 82.4 °F 60.3 °F 47% 30.30 in 10.0 mi East 8.1 mph - N/A   Clear
10:50 AM 83.3 °F 83.1 °F 58.6 °F 43% 30.29 in 10.0 mi East 8.1 mph - N/A   Clear
11:10 AM 84.4 °F 83.5 °F 56.7 °F 39% 30.29 in 10.0 mi ESE 8.1 mph - N/A   Clear
11:30 AM 85.1 °F 83.5 °F 54.1 °F 34% 30.28 in 10.0 mi East 8.1 mph - N/A   Clear
11:50 AM 85.1 °F 83.8 °F 55.0 °F 36% 30.28 in 10.0 mi ESE 4.6 mph - N/A   Clear
12:10 PM 86.4 °F 84.7 °F 54.7 °F 34% 30.28 in 10.0 mi NE 3.5 mph - N/A   Scattered Clouds
12:30 PM 86.4 °F - 52.7 °F 31% 30.27 in 10.0 mi East 10.4 mph - N/A   Mostly Cloudy
12:50 PM 85.5 °F - 50.5 °F 30% 30.26 in 10.0 mi ENE 4.6 mph - N/A   Scattered Clouds
1:10 PM 86.5 °F - 49.8 °F 28% 30.25 in 10.0 mi East 9.2 mph - N/A   Scattered Clouds
1:30 PM 88.0 °F - 48.9 °F 26% 30.24 in 10.0 mi East 5.8 mph - N/A   Scattered Clouds
1:50 PM 88.5 °F - 47.8 °F 24% 30.23 in 10.0 mi ENE 6.9 mph - N/A   Scattered Clouds
2:10 PM 88.7 °F - 47.7 °F 24% 30.22 in 10.0 mi NE 9.2 mph - N/A   Clear
2:30 PM 88.5 °F - 47.7 °F 24% 30.22 in 10.0 mi East 10.4 mph 16.1 mph N/A   Clear
2:50 PM 88.2 °F - 46.4 °F 23% 30.21 in 10.0 mi ENE 8.1 mph - N/A   Clear
3:10 PM 88.9 °F - 46.9 °F 23% 30.20 in 10.0 mi East 5.8 mph - N/A   Clear
3:30 PM 89.2 °F - 43.2 °F 20% 30.19 in 10.0 mi NNE 6.9 mph - N/A   Clear
3:50 PM 89.4 °F - 43.7 °F 20% 30.19 in 10.0 mi ESE 4.6 mph - N/A   Clear
4:10 PM 90.0 °F - 42.3 °F 19% 30.17 in 10.0 mi ENE 9.2 mph - N/A   Clear
4:30 PM 89.6 °F - 41.0 °F 18% 30.17 in 10.0 mi East 10.4 mph - N/A   Clear
4:50 PM 89.4 °F - 39.7 °F 17% 30.17 in 10.0 mi NE 6.9 mph - N/A   Clear
5:10 PM 88.9 °F - 40.6 °F 18% 30.17 in 10.0 mi ENE 9.2 mph - N/A   Clear
5:30 PM 88.2 °F - 41.9 °F 20% 30.17 in 10.0 mi East 9.2 mph - N/A   Clear
5:50 PM 88.0 °F - 39.6 °F 18% 30.16 in 10.0 mi NE 5.8 mph - N/A   Clear
6:10 PM 87.8 °F - 39.4 °F 18% 30.17 in 10.0 mi ENE 4.6 mph - N/A   Clear
6:30 PM 87.1 °F - 40.1 °F 19% 30.17 in 10.0 mi NE 6.9 mph - N/A   Clear
6:50 PM 85.6 °F - 41.0 °F 21% 30.17 in 10.0 mi NE 3.5 mph - N/A   Clear
7:15 PM 83.7 °F - 42.3 °F 23% 30.17 in 10.0 mi Calm Calm - N/A   Clear
7:30 PM 82.6 °F - 43.2 °F 25% 30.17 in 10.0 mi Calm Calm - N/A   Clear
7:50 PM 81.3 °F - 50.0 °F 33% 30.18 in 10.0 mi ESE 4.6 mph - N/A   Clear
8:10 PM 80.6 °F 80.6 °F 56.5 °F 43% 30.19 in 10.0 mi SE 4.6 mph - N/A   Clear
8:30 PM 79.3 °F - 59.2 °F 50% 30.20 in 10.0 mi SE 6.9 mph - N/A   Clear
8:50 PM 78.6 °F - 59.9 °F 52% 30.20 in 10.0 mi SE 6.9 mph - N/A   Clear
9:10 PM 77.9 °F - 60.1 °F 54% 30.21 in 10.0 mi ESE 5.8 mph - N/A   Clear
9:30 PM 77.0 °F - 60.6 °F 57% 30.22 in 10.0 mi Calm Calm - N/A   Clear
9:50 PM 76.1 °F - 61.0 °F 59% 30.22 in 10.0 mi SE 3.5 mph - N/A   Clear
10:10 PM 75.6 °F - 61.2 °F 61% 30.23 in 10.0 mi SE 3.5 mph - N/A   Clear
10:30 PM 74.7 °F - 61.3 °F 63% 30.23 in 10.0 mi ESE 3.5 mph - N/A   Clear
10:50 PM 74.1 °F - 61.3 °F 64% 30.23 in 10.0 mi Calm Calm - N/A   Clear
11:10 PM 73.4 °F - 61.3 °F 66% 30.23 in 10.0 mi Calm Calm - N/A   Clear
11:30 PM 73.0 °F - 61.3 °F 67% 30.23 in 10.0 mi Calm Calm - N/A   Clear
11:50 PM 72.5 °F - 61.2 °F 67% 30.22 in 10.0 mi ESE 3.5 mph - N/A   Clear